Probability
81 97 100 100 100 100 100 100 100 97 97 97 100 100 100 100 100 100 100 100 100 100 100 100 100 100 100 100 100 100 100 100 100 100 100 100 100 100 100 100 97 94 100
87 100 100 100 100 100 100 100 100 100 100 100 100 100 100 100 100 100 100 100 100 100 100 100 100 100 100 100 100 100 100 100 100 100 100 100 100 100 100 100 97 100 100
94 100 100 100 100 100 100 100 100 100 100 100 100 100 100 100 100 100 100 100 100 100 100 100 100 100 100 100 100 100 100 100 100 100 100 100 100 100 97 100 100 100 100
97 100 100 100 100 100 100 100 100 100 100 100 100 100 100 100 100 100 100 100 100 100 100 100 100 100 100 100 100 100 100 100 100 100 97 100 100 100 100 97 97 100 100
100 100 100 100 100 100 100 100 100 100 100 100 100 100 100 100 100 100 100 100 100 100 100 100 100 100 100 100 100 100 100 100 100 87 87 87 100 100 100 100 97 97 97
97 100 100 100 100 100 100 100 100 100 100 100 100 100 100 100 100 100 100 100 100 100 100 100 100 100 100 100 100 100 100 100 97 48 71 87 100 100 100 100 94 94 97
97 97 97 100 100 100 100 100 100 100 100 100 100 100 100 100 100 100 100 100 100 100 100 100 100 100 100 100 100 100 100 100 48 48 68 84 100 100 100 97 97 94 87
94 90 94 97 97 100 100 100 100 100 100 100 100 100 100 100 100 100 100 100 100 100 100 100 100 100 100 100 97 100 100 97 65 52 55 74 90 100 97 97 94 94 87
90 90 90 90 90 94 100 100 100 100 100 100 100 100 100 100 100 100 100 100 100 100 100 100 100 100 100 97 97 94 94 90 26 45 39 55 90 100 97 97 94 94 94
87 87 84 84 84 87 94 94 97 100 100 100 100 100 100 100 100 100 100 100 100 100 100 100 100 100 97 87 87 90 90 58 13 13 39 52 94 100 94 97 94 94 90
87 87 87 84 84 84 81 84 90 94 97 100 100 100 97 97 97 97 100 100 100 100 100 100 97 94 87 84 87 87 77 16 10 19 26 52 94 97 94 100 97 90 90
87 84 77 77 77 77 74 77 77 77 87 90 90 94 97 97 97 97 97 97 97 97 94 90 90 87 71 61 61 65 26 13 16 19 35 71 90 97 97 94 87 84 84
74 71 74 77 71 71 77 77 81 81 81 81 84 84 81 77 77 84 77 90 94 90 81 84 84 77 58 42 29 23 16 3 10 10 26 68 94 97 90 90 84 87 87
71 71 68 65 71 71 68 68 71 77 74 71 71 71 61 61 58 55 61 68 61 65 65 61 58 45 39 26 23 13 10 6 13 10 16 45 77 81 84 74 81 81 81
61 55 48 52 61 61 65 65 65 58 55 58 58 65 55 55 55 42 45 42 39 39 35 29 29 23 23 19 16 10 0 3 6 10 16 32 65 68 68 71 74 74 68
45 45 48 52 48 48 52 48 45 42 35 39 35 39 45 32 32 23 19 29 26 13 13 13 13 16 6 13 3 3 3 3 3 3 13 29 55 71 58 61 61 58 52
42 39 42 39 45 39 32 32 29 23 23 23 29 32 26 23 19 16 10 10 16 10 3 3 3 3 3 3 3 3 3 3 3 3 0 13 29 48 52 42 39 35 23
35 32 26 32 32 29 23 23 16 16 16 13 10 10 13 16 16 13 10 6 6 3 3 3 3 3 3 3 3 3 3 3 3 0 3 3 3 6 23 29 23 23 19
29 26 16 16 19 19 16 13 6 10 6 6 10 10 10 10 10 10 10 10 3 3 3 3 3 3 3 3 0 0 0 0 0 0 0 0 3 3 3 10 6 10 10
26 13 10 10 16 10 10 10 10 6 3 3 3 6 10 10 10 10 6 6 0 3 3 3 3 0 0 0 0 0 0 0 0 0 0 0 0 0 0 0 0 0 0
10 13 6 6 6 10 10 10 6 6 3 3 3 0 3 6 10 10 6 6 0 0 3 3 3 0 0 0 0 0 0 0 0 0 0 0 0 0 0 0 0 0 0
0 3 10 6 3 3 3 3 3 3 3 3 3 0 0 3 3 3 3 3 0 0 0 0 0 0 0 0 0 0 0 0 0 0 0 0 0 0 0 0 0 0 0
0 3 3 3 3 3 0 0 0 0 0 3 3 0 0 0 0 6 0 0 0 0 0 0 0 0 0 0 0 0 0 0 0 0 0 0 0 0 0 0 0 0 0
6 3 0 0 3 3 0 0 0 0 0 3 3 3 0 0 0 0 0 0 0 0 0 0 0 0 0 0 0 0 0 0 0 0 0 0 0 0 0 0 0 0 0
3 0 0 0 3 3 0 0 0 3 3 3 0 3 0 0 0 0 0 0 0 0 0 0 0 0 0 0 0 0 0 0 0 0 0 0 0 0 0 0 0 0 0
0 0 0 0 0 3 3 3 0 0 0 3 3 0 0 0 0 0 0 0 0 0 0 0 0 0 0 0 0 0 0 0 0 0 0 0 0 0 0 0 0 0 0
Height
5883 5884 5885 5886 5886 5887 5888 5889 5890 5891 5893 5894 5895 5897 5898 5899 5900 5901 5901 5902 5902 5902 5902 5902 5902 5901 5901 5900 5899 5898 5898 5897 5897 5897 5897 5896 5896 5896 5896 5895 5895 5895 5895
5882 5883 5884 5885 5885 5886 5886 5887 5889 5890 5892 5893 5895 5896 5897 5898 5899 5900 5900 5901 5901 5901 5902 5901 5901 5901 5900 5899 5899 5898 5898 5897 5897 5897 5897 5897 5896 5896 5896 5896 5896 5896 5895
5881 5881 5882 5883 5884 5885 5885 5886 5887 5888 5890 5892 5893 5894 5895 5897 5898 5898 5899 5900 5900 5900 5901 5901 5900 5900 5900 5899 5898 5898 5898 5897 5897 5897 5897 5897 5897 5897 5897 5896 5896 5896 5896
5879 5880 5880 5881 5882 5883 5884 5885 5885 5887 5888 5889 5891 5892 5894 5895 5896 5897 5898 5898 5899 5899 5899 5899 5899 5899 5899 5898 5898 5898 5897 5897 5897 5897 5897 5897 5897 5897 5897 5896 5896 5896 5896
5878 5878 5879 5880 5880 5881 5882 5883 5884 5885 5886 5887 5889 5890 5891 5892 5894 5895 5895 5896 5897 5897 5897 5898 5898 5898 5897 5897 5897 5897 5897 5897 5897 5897 5897 5897 5897 5897 5896 5896 5896 5896 5895
5876 5876 5877 5878 5878 5879 5880 5880 5881 5882 5884 5885 5886 5887 5889 5890 5891 5892 5893 5894 5894 5895 5895 5896 5896 5896 5896 5896 5896 5896 5896 5896 5896 5896 5896 5896 5896 5896 5896 5896 5895 5895 5895
5874 5874 5875 5875 5876 5877 5877 5878 5879 5880 5881 5882 5883 5884 5886 5887 5888 5889 5890 5891 5891 5892 5893 5893 5894 5894 5894 5894 5894 5894 5894 5895 5895 5895 5895 5895 5895 5895 5895 5895 5895 5895 5895
5871 5872 5872 5873 5873 5874 5875 5875 5876 5877 5878 5879 5880 5881 5883 5884 5885 5886 5887 5887 5888 5889 5890 5890 5891 5892 5892 5892 5892 5892 5893 5893 5893 5893 5894 5894 5894 5894 5894 5894 5894 5894 5894
5869 5869 5870 5870 5870 5871 5871 5872 5873 5874 5875 5876 5877 5878 5879 5880 5881 5882 5883 5884 5885 5886 5886 5887 5888 5889 5889 5889 5890 5890 5891 5891 5891 5891 5892 5892 5892 5892 5892 5893 5893 5893 5893
5866 5866 5866 5867 5867 5867 5868 5869 5870 5870 5871 5873 5874 5875 5876 5877 5878 5879 5880 5881 5881 5882 5883 5884 5884 5885 5886 5887 5887 5888 5888 5888 5889 5889 5889 5890 5890 5891 5891 5891 5892 5892 5892
5863 5863 5863 5863 5864 5864 5865 5866 5866 5867 5868 5869 5870 5871 5872 5873 5874 5875 5876 5877 5878 5879 5879 5880 5881 5882 5883 5884 5884 5885 5885 5886 5886 5886 5887 5888 5888 5889 5889 5890 5890 5890 5891
5859 5859 5859 5860 5860 5860 5861 5862 5863 5864 5865 5866 5866 5867 5868 5869 5870 5871 5872 5873 5873 5874 5875 5876 5877 5878 5879 5880 5881 5881 5882 5882 5883 5883 5884 5885 5886 5886 5887 5887 5888 5888 5889
5855 5855 5856 5856 5856 5857 5857 5858 5859 5859 5861 5862 5862 5862 5863 5864 5865 5867 5867 5868 5869 5870 5871 5872 5872 5874 5875 5876 5877 5878 5878 5879 5880 5880 5881 5882 5883 5883 5884 5885 5885 5886 5886
5851 5851 5852 5852 5852 5853 5853 5853 5854 5854 5856 5856 5857 5858 5859 5860 5861 5862 5863 5863 5864 5865 5866 5867 5868 5869 5870 5871 5872 5873 5874 5875 5876 5877 5877 5878 5879 5880 5881 5882 5882 5883 5883
5847 5847 5847 5847 5847 5847 5847 5847 5849 5850 5850 5851 5852 5853 5853 5855 5856 5857 5858 5858 5859 5859 5860 5862 5863 5863 5865 5866 5867 5868 5869 5870 5872 5873 5873 5874 5875 5876 5877 5878 5879 5879 5880
5841 5842 5841 5841 5842 5842 5842 5843 5843 5844 5845 5846 5847 5847 5848 5849 5850 5852 5853 5853 5854 5854 5855 5856 5857 5858 5859 5860 5862 5863 5864 5865 5867 5868 5869 5870 5871 5872 5873 5874 5875 5875 5876
5836 5837 5837 5837 5837 5837 5837 5838 5838 5839 5840 5840 5840 5841 5841 5842 5843 5845 5846 5847 5848 5848 5849 5850 5851 5852 5854 5855 5856 5858 5859 5860 5862 5863 5864 5865 5866 5867 5868 5869 5870 5870 5871
5830 5831 5832 5832 5832 5831 5831 5832 5833 5833 5833 5833 5834 5834 5835 5835 5836 5838 5840 5841 5842 5842 5843 5844 5846 5847 5848 5849 5850 5852 5853 5855 5856 5858 5859 5859 5861 5862 5863 5864 5865 5865 5866
5824 5825 5826 5826 5826 5826 5826 5826 5827 5827 5827 5827 5827 5827 5828 5829 5830 5831 5833 5835 5836 5836 5837 5838 5840 5841 5842 5843 5845 5846 5848 5849 5851 5852 5853 5855 5856 5857 5858 5859 5859 5860 5861
5818 5819 5820 5820 5821 5821 5821 5821 5821 5821 5822 5822 5821 5822 5823 5823 5824 5825 5826 5828 5829 5831 5831 5832 5833 5834 5836 5837 5839 5840 5842 5843 5845 5846 5848 5849 5851 5852 5853 5853 5854 5854 5855
5813 5813 5813 5814 5814 5814 5815 5815 5815 5815 5816 5816 5816 5817 5818 5818 5818 5819 5820 5822 5823 5825 5825 5826 5827 5828 5829 5831 5833 5834 5836 5837 5839 5841 5842 5843 5845 5846 5847 5847 5848 5848 5848
5806 5807 5807 5807 5808 5808 5809 5809 5809 5810 5810 5811 5812 5812 5812 5812 5813 5814 5814 5816 5817 5818 5819 5820 5821 5822 5823 5825 5827 5828 5829 5832 5833 5835 5836 5837 5838 5839 5840 5841 5841 5842 5842
5800 5800 5801 5801 5801 5801 5802 5803 5803 5804 5805 5805 5806 5806 5806 5807 5807 5808 5809 5810 5811 5812 5813 5814 5814 5816 5817 5818 5820 5822 5824 5825 5827 5828 5829 5831 5832 5833 5833 5834 5834 5834 5834
5794 5794 5794 5794 5794 5795 5795 5796 5797 5797 5798 5798 5799 5799 5800 5800 5801 5802 5803 5803 5804 5806 5807 5807 5808 5809 5811 5812 5814 5816 5818 5819 5821 5822 5823 5824 5825 5825 5826 5826 5826 5826 5826
5788 5788 5788 5788 5788 5788 5789 5789 5790 5790 5791 5791 5792 5793 5794 5794 5795 5796 5797 5797 5798 5800 5801 5802 5802 5804 5804 5806 5808 5809 5811 5813 5814 5815 5816 5817 5817 5817 5818 5818 5818 5818 5818
5781 5781 5782 5782 5782 5782 5782 5782 5782 5783 5784 5784 5785 5786 5787 5788 5789 5790 5790 5791 5792 5793 5794 5796 5797 5798 5799 5801 5802 5804 5805 5806 5807 5809 5809 5810 5810 5810 5810 5810 5810 5810 5810
Wind_Speed
4 3 4 4 4 5 5 5 6 5 5 5 4 3 3 3 4 5 6 7 9 10 11 11 11 12 12 11 10 9 8 7 6 5 5 5 4 4 4 3 3 2 2
4 4 5 5 6 6 6 6 6 6 6 6 6 5 5 5 5 6 7 7 8 9 10 11 11 11 12 11 10 9 8 7 6 5 5 4 4 3 3 3 2 2 2
4 5 6 7 8 8 8 8 8 8 8 8 8 7 7 7 6 7 7 8 8 8 9 10 10 11 11 11 10 9 8 7 6 5 5 4 3 3 3 2 2 2 2
6 7 7 9 9 9 9 9 9 9 9 9 9 9 9 8 8 8 8 8 8 8 9 9 10 10 10 10 9 9 8 7 6 6 5 4 3 3 3 2 2 2 2
8 7 8 10 10 10 10 10 10 11 11 11 11 10 10 10 10 10 10 9 9 9 9 10 10 10 10 10 9 9 8 7 7 6 6 5 4 3 3 3 2 2 3
10 9 9 10 11 11 11 12 12 12 13 12 12 12 12 12 12 12 12 12 11 11 11 11 11 10 10 10 9 9 8 8 7 7 7 6 5 4 4 3 3 3 3
11 11 11 11 12 13 13 13 14 14 14 14 14 14 14 14 14 14 14 14 14 13 12 12 12 11 10 10 10 9 9 9 8 7 7 7 6 5 4 4 3 3 4
12 13 13 13 13 14 14 14 15 15 15 15 16 16 16 15 15 16 16 16 15 15 14 13 13 12 11 11 11 10 10 10 9 9 8 8 7 6 5 5 4 4 4
14 15 14 14 15 16 16 16 17 17 17 17 17 17 17 17 18 18 18 17 17 16 16 15 14 13 12 12 12 11 11 11 10 10 9 9 8 7 7 6 5 5 5
16 16 16 16 16 17 17 17 18 18 18 18 19 19 19 19 19 19 20 19 19 18 17 16 16 15 14 14 13 13 12 12 12 11 10 10 10 9 8 7 7 7 6
18 18 18 18 17 17 17 17 18 19 20 20 20 21 21 21 21 21 21 21 21 20 19 18 17 16 16 15 15 14 14 14 13 13 12 11 11 11 10 9 9 8 8
20 19 20 19 18 18 18 19 20 20 20 21 22 22 22 22 22 22 21 22 22 21 21 20 19 19 17 17 17 16 16 15 15 14 14 13 13 12 12 12 11 10 10
21 20 20 20 19 18 19 20 21 22 22 22 23 23 24 23 23 23 22 22 22 22 22 22 21 20 19 19 19 18 18 18 17 16 16 15 15 14 14 14 14 13 12
23 22 22 22 21 21 22 23 23 24 24 23 24 24 24 24 24 24 24 24 24 24 24 24 23 22 21 21 21 21 20 19 19 18 18 17 17 16 16 16 16 15 15
23 23 23 23 23 24 24 25 25 25 25 25 26 25 26 27 26 26 26 25 26 25 26 25 25 25 24 23 22 22 22 21 20 20 19 19 19 19 18 18 18 17 17
25 25 24 23 23 23 24 25 25 24 26 28 28 28 28 28 27 26 26 26 26 26 26 27 26 25 24 23 23 23 23 23 22 21 21 21 21 21 20 20 20 19 18
26 25 25 24 24 24 23 24 24 26 27 28 29 30 30 29 27 27 27 26 26 26 27 27 26 25 24 24 23 22 22 22 22 22 22 22 22 22 22 22 21 21 21
28 27 26 26 26 25 26 26 26 27 28 28 29 29 29 28 28 28 28 28 27 27 26 26 26 25 25 25 24 23 23 23 23 23 23 23 23 24 23 23 23 23 23
30 29 28 26 26 26 27 27 27 26 26 26 26 27 27 27 28 28 29 29 27 26 26 26 26 24 24 24 25 24 24 24 24 23 23 24 24 24 24 24 24 25 24
29 29 28 28 27 27 27 27 27 26 25 24 24 24 25 26 26 26 28 28 27 25 26 26 26 25 24 25 25 24 24 24 25 24 25 25 25 26 26 26 26 26 27
27 28 28 27 28 28 28 27 26 26 26 24 22 23 24 23 22 22 24 25 26 26 25 25 25 25 25 25 26 25 25 25 26 26 26 26 26 27 27 27 27 28 29
27 27 27 27 27 28 28 28 27 26 26 25 25 24 23 22 21 21 22 24 25 25 25 25 26 27 27 26 27 27 27 28 28 27 28 28 29 29 29 30 30 31 32
27 27 27 27 28 28 28 29 29 28 28 27 25 25 24 24 23 23 23 23 24 25 25 24 26 27 27 28 27 28 29 30 30 29 29 30 30 31 32 32 33 33 33
26 27 27 26 27 27 28 28 28 28 27 26 25 25 25 24 23 23 23 23 23 23 23 24 25 26 27 27 27 28 28 29 30 30 31 31 32 33 33 33 34 35 35
26 26 26 26 26 27 28 28 28 28 27 27 26 25 25 24 23 23 23 22 22 23 24 24 24 25 26 27 26 27 27 27 29 30 30 30 31 32 33 33 33 35 35
24 24 25 25 25 26 26 27 27 27 27 27 26 25 24 24 23 23 23 22 21 22 23 23 24 24 24 26 26 26 27 27 28 29 30 31 31 31 32 33 34 35 36
Wind_Direction
301 271 254 249 250 239 231 228 219 213 213 221 235 254 265 283 303 312 316 322 328 332 334 336 337 337 337 336 336 335 334 334 336 344 351 356 359 6 11 13 8 3 4
282 256 248 244 245 241 237 234 230 229 227 229 236 247 258 267 283 297 305 314 320 325 328 330 332 333 333 333 332 331 329 327 326 333 341 344 347 353 359 7 7 2 9
278 260 250 244 243 241 239 237 236 237 238 238 238 245 253 261 273 285 293 301 307 313 320 323 325 327 329 329 327 326 322 317 315 319 326 329 333 332 338 351 1 4 14
278 268 257 248 242 239 238 239 240 241 244 244 245 247 251 257 264 273 280 287 293 301 309 314 317 319 322 323 319 317 313 306 302 305 309 308 308 310 317 324 342 354 7
280 268 259 251 244 240 240 241 243 246 247 249 250 252 253 256 260 267 274 280 285 289 297 302 307 311 314 314 310 306 303 295 291 294 294 290 286 291 303 315 332 347 358
277 266 258 254 250 246 244 243 244 247 248 250 252 253 255 258 260 265 269 274 279 282 288 293 297 301 303 304 301 297 294 287 282 285 283 278 276 283 295 306 322 337 345
275 267 257 252 251 250 249 247 247 247 248 249 251 252 254 257 260 263 267 270 274 278 282 286 288 292 293 293 293 290 286 280 276 276 275 274 272 277 287 297 306 318 330
278 274 265 258 254 251 250 249 249 248 249 250 251 253 254 257 261 263 265 269 271 274 277 279 281 284 285 284 285 284 281 276 273 270 270 270 269 272 277 284 293 304 313
280 274 268 263 259 255 253 251 251 249 249 251 253 254 255 258 261 263 264 267 269 271 273 275 276 277 278 278 278 278 277 275 271 269 266 266 266 268 270 273 281 292 300
281 276 271 266 262 259 256 255 253 249 248 250 252 254 256 258 261 263 263 265 267 268 270 272 273 272 272 272 273 272 272 272 270 267 264 263 264 266 267 266 273 280 286
282 280 277 271 266 262 258 258 256 251 249 250 252 255 255 257 260 261 262 264 265 265 266 268 268 268 268 268 268 267 268 268 266 263 261 260 261 262 263 265 267 271 277
281 279 276 273 268 265 262 263 260 255 252 252 253 254 256 258 259 260 261 263 263 263 264 265 265 264 264 265 265 263 263 263 262 260 259 257 256 259 261 263 264 268 272
277 277 273 271 268 264 266 267 265 256 253 256 258 255 257 258 258 258 259 261 263 263 263 264 263 262 261 263 263 260 260 260 259 257 256 255 254 256 260 261 262 265 269
274 276 274 273 271 268 265 265 265 262 257 259 260 257 256 258 259 258 258 262 263 264 265 264 263 262 260 260 259 258 259 257 257 255 253 251 252 254 257 258 259 262 266
275 274 274 272 273 269 265 264 268 266 262 262 259 259 258 260 261 259 259 260 263 265 264 264 265 263 260 260 258 257 257 254 253 254 251 249 250 252 255 257 259 261 264
274 273 274 270 272 272 265 266 267 264 263 260 260 260 259 261 263 259 260 262 263 265 265 262 263 263 261 259 258 257 257 253 253 253 252 250 250 251 254 256 259 260 262
274 274 273 271 272 272 267 267 267 265 265 263 261 262 261 262 262 260 260 264 264 264 264 263 261 261 263 263 259 254 253 251 251 251 251 250 251 252 253 255 257 260 262
274 274 273 272 271 270 269 270 270 268 268 265 262 263 261 261 260 259 260 263 263 262 262 262 260 261 263 262 256 254 253 250 250 251 251 249 251 252 254 255 258 260 263
272 272 271 271 271 271 272 271 270 269 271 270 265 263 264 261 259 259 259 260 259 258 258 261 260 258 258 257 253 252 252 249 249 249 249 249 251 252 254 254 258 260 263
271 271 271 271 272 272 272 272 272 271 273 273 270 267 268 265 261 259 257 255 255 255 255 258 258 256 254 254 251 251 249 246 245 245 245 246 249 251 253 254 257 261 264
273 272 272 272 272 272 272 271 270 270 270 271 272 271 271 268 266 259 254 253 253 254 255 256 258 253 252 251 249 249 247 245 244 243 245 246 248 251 252 254 256 260 263
274 273 273 272 272 272 271 269 268 270 271 273 270 269 273 274 272 267 260 256 257 256 255 254 254 252 251 250 249 248 246 245 244 243 247 248 249 252 254 255 258 260 263
275 274 274 274 273 272 270 269 268 268 270 272 269 268 270 271 273 269 265 262 260 260 258 255 253 250 251 250 249 248 246 248 246 246 247 249 251 254 257 258 259 262 264
275 274 273 273 273 272 271 269 269 269 269 267 267 266 266 266 266 266 263 261 261 260 259 256 250 249 251 249 249 247 248 248 249 251 253 253 255 257 258 259 261 264 265
273 272 272 272 273 273 272 270 269 270 269 267 266 263 263 262 263 262 261 261 260 260 260 257 252 251 250 246 246 247 250 250 252 254 255 257 259 260 261 265 267 268 270
275 274 273 272 274 273 272 272 271 269 267 267 266 264 265 263 262 261 262 261 262 262 261 258 256 254 252 246 244 247 249 251 253 255 257 259 262 263 265 267 270 272 272